DW2019 Weather Reports


time (UTC)temp
C
wind
direction
speed
KPH
gust
KPH
rain 1hr
cm
rain 24hr
cm
rain mn
cm
humidity
%
barometer
mb
20260906142617 21 92 0.0 8.0 0.00 0.00 0.00 91 1018.5
20260906142124 21 72 3.2 8.0 0.00 0.00 0.00 91 1018.5
20260906141635 20 57 3.2 9.7 0.00 0.00 0.00 91 1018.5
20260906141118 21 46 3.2 9.7 0.00 0.00 0.00 91 1018.5
20260906140624 21 51 1.6 9.7 0.00 0.00 0.00 91 1018.5
20260906140114 21 80 0.0 4.8 0.00 0.00 0.00 92 1018.5
20260906135626 21 79 0.0 6.4 0.00 0.00 0.00 92 1018.5
20260906135131 20 77 1.6 6.4 0.00 0.00 0.00 93 1018.6
20260906134641 20 49 0.0 12.9 0.00 0.00 0.00 92 1018.6
20260906134126 20 42 1.6 12.9 0.00 0.00 0.00 92 1018.6
20260906133638 20 37 0.0 12.9 0.00 0.00 0.00 93 1018.6
20260906133121 20 37 1.6 12.9 0.00 0.00 0.00 93 1018.7
20260906132632 20 65 1.6 8.0 0.00 0.00 0.00 93 1018.6
20260906132137 20 63 1.6 8.0 0.00 0.00 0.00 93 1018.6
20260906131627 20 36 1.6 8.0 0.00 0.00 0.00 93 1018.7
20260906131132 20 38 0.0 3.2 0.00 0.00 0.00 93 1018.7
20260906130617 20 38 0.0 6.4 0.00 0.00 0.00 93 1018.6
20260906130129 20 38 1.6 6.4 0.00 0.00 0.00 93 1018.5
20260906125633 20 85 0.0 6.4 0.00 0.00 0.00 93 1018.6
20260906125120 20 86 0.0 6.4 0.00 0.00 0.00 93 1018.6
20260906124623 20 86 0.0 6.4 0.00 0.00 0.00 93 1018.4
20260906124134 20 86 0.0 6.4 0.00 0.00 0.00 93 1018.2
20260906123617 20 86 0.0 6.4 0.00 0.00 0.00 93 1018.2
20260906123139 19 57 0.0 6.4 0.00 0.00 0.00 93 1018.1
20260906122630 19 57 1.6 6.4 0.00 0.00 0.00 93 1018.1
20260906122113 19 53 1.6 8.0 0.00 0.00 0.00 93 1018.1
20260906121645 19 53 1.6 8.0 0.00 0.00 0.00 93 1018.0
20260906121156 19 61 1.6 6.4 0.00 0.00 0.00 93 1017.8
20260906120620 19 30 0.0 3.2 0.00 0.00 0.00 93 1017.7
20260906120152 19 29 0.0 0.0 0.00 0.00 0.00 93 1017.8
20260906115613 19 29 0.0 1.6 0.00 0.00 0.00 93 1017.7
20260906115116 18 29 0.0 1.6 0.00 0.00 0.00 93 1017.7
20260906114627 18 29 0.0 0.0 0.00 0.00 0.00 93 1017.6
20260906114130 18 29 0.0 0.0 0.00 0.00 0.00 92 1017.5
20260906113612 18 29 0.0 1.6 0.00 0.00 0.00 93 1017.3
20260906113123 18 29 0.0 1.6 0.00 0.00 0.00 92 1017.3
20260906112628 19 29 0.0 6.4 0.00 0.00 0.00 93 1017.4
20260906112114 19 29 1.6 6.4 0.00 0.00 0.00 93 1017.4
20260906111642 19 24 0.0 8.0 0.00 0.00 0.00 93 1017.2
20260906111154 19 24 1.6 8.0 0.00 0.00 0.00 93 1017.2
20260906110617 19 28 0.0 1.6 0.00 0.00 0.00 93 1017.2
20260906110120 19 28 0.0 4.8 0.00 0.00 0.00 93 1017.0
20260906105630 18 28 1.6 4.8 0.00 0.00 0.00 92 1017.0
20260906105136 18 28 0.0 4.8 0.00 0.00 0.00 93 1016.8
20260906104621 18 28 0.0 4.8 0.00 0.00 0.00 92 1016.8
20260906104127 18 28 0.0 0.0 0.00 0.00 0.00 92 1016.7
20260906103639 18 28 0.0 0.0 0.00 0.00 0.00 92 1016.7
20260906103121 18 28 0.0 3.2 0.00 0.00 0.00 92 1016.8
20260906102634 18 28 0.0 3.2 0.00 0.00 0.00 92 1016.8
20260906102122 19 28 0.0 0.0 0.00 0.00 0.00 92 1016.8
20260906101624 19 28 0.0 0.0 0.00 0.00 0.00 92 1016.9
20260906101137 19 28 0.0 0.0 0.00 0.00 0.00 92 1016.7
20260906100619 19 28 0.0 0.0 0.00 0.00 0.00 92 1016.8
20260906100124 19 29 0.0 0.0 0.00 0.00 0.00 92 1016.7
20260906095635 19 29 0.0 0.0 0.00 0.00 0.00 92 1016.7
20260906095138 19 29 0.0 0.0 0.00 0.00 0.00 92 1016.6
20260906094624 19 29 0.0 0.0 0.00 0.00 0.00 92 1016.7
20260906094152 19 29 0.0 0.0 0.00 0.00 0.00 92 1016.6
20260906093614 19 29 0.0 0.0 0.00 0.00 0.00 92 1016.6
20260906093125 19 29 0.0 0.0 0.00 0.00 0.00 92 1016.5
20260906092631 19 29 0.0 0.0 0.00 0.00 0.00 92 1016.4
20260906092114 19 29 0.0 0.0 0.00 0.00 0.00 91 1016.4
20260906091626 19 29 0.0 0.0 0.00 0.00 0.00 91 1016.3
20260906091131 20 29 0.0 0.0 0.00 0.00 0.00 91 1016.4
20260906090614 20 29 0.0 0.0 0.00 0.00 0.00 91 1016.3
20260906090124 20 29 0.0 0.0 0.00 0.00 0.00 91 1016.4
20260906085656 20 29 0.0 0.0 0.00 0.00 0.00 91 1016.4
20260906085119 20 29 0.0 0.0 0.00 0.00 0.00 91 1016.6
20260906084622 20 29 0.0 0.0 0.00 0.00 0.00 91 1016.6
20260906084133 20 29 0.0 0.0 0.00 0.00 0.00 91 1016.5
20260906083620 20 29 0.0 0.0 0.00 0.00 0.00 91 1016.4
20260906083120 20 29 0.0 0.0 0.00 0.00 0.00 91 1016.5
20260906082652 20 29 0.0 0.0 0.00 0.00 0.00 91 1016.6
20260906082114 20 29 0.0 0.0 0.00 0.00 0.00 91 1016.5
20260906081625 20 29 0.0 0.0 0.00 0.00 0.00 91 1016.6
20260906081131 20 29 0.0 0.0 0.00 0.00 0.00 91 1016.6
20260906080616 20 29 0.0 0.0 0.00 0.00 0.00 91 1016.5
20260906080122 20 29 0.0 0.0 0.00 0.00 0.00 91 1016.3
20260906075628 20 29 0.0 3.2 0.00 0.00 0.00 90 1016.3
20260906075113 20 29 0.0 3.2 0.00 0.00 0.00 91 1016.4
20260906074627 20 29 0.0 3.2 0.00 0.00 0.00 90 1016.4
20260906074131 20 29 0.0 3.2 0.00 0.00 0.00 90 1016.4
20260906073614 20 29 0.0 3.2 0.00 0.00 0.00 90 1016.4
20260906073125 20 29 0.0 0.0 0.00 0.00 0.00 90 1016.4
20260906072657 20 29 0.0 0.0 0.00 0.00 0.00 90 1016.5
20260906072119 20 29 0.0 4.8 0.00 0.00 0.00 90 1016.7
20260906071622 20 29 0.0 0.0 0.00 0.00 0.00 90 1016.8
20260906071134 20 29 0.0 0.0 0.00 0.00 0.00 90 1016.8
20260906070617 20 29 0.0 0.0 0.00 0.00 0.00 89 1016.8
20260906070118 20 29 0.0 0.0 0.00 0.00 0.00 89 1016.8
20260906065627 21 29 0.0 0.0 0.00 0.00 0.00 89 1016.8
20260906065131 21 29 0.0 0.0 0.00 0.00 0.00 89 1016.9
20260906064615 21 29 0.0 3.2 0.00 0.00 0.00 89 1017.0
20260906064125 21 29 0.0 3.2 0.00 0.00 0.00 89 1017.0
20260906063647 21 29 0.0 1.6 0.00 0.00 0.00 88 1017.0
20260906063117 21 29 0.0 0.0 0.00 0.00 0.00 88 1017.0
20260906062619 21 29 0.0 1.6 0.00 0.00 0.00 88 1016.9
20260906062149 21 29 0.0 3.2 0.00 0.00 0.00 88 1016.8
20260906061657 21 29 0.0 3.2 0.00 0.00 0.00 88 1016.8
20260906061118 21 29 0.0 3.2 0.00 0.00 0.00 88 1016.6
20260906060625 21 29 0.0 4.8 0.00 0.00 0.00 88 1016.7
20260906060134 21 29 1.6 6.4 0.00 0.00 0.00 88 1016.7
20260906055639 21 29 0.0 6.4 0.00 0.00 0.00 88 1016.7
20260906055129 21 28 1.6 6.4 0.00 0.00 0.00 88 1016.7
20260906054632 21 28 0.0 9.7 0.00 0.00 0.00 88 1016.6
20260906054142 21 28 3.2 9.7 0.00 0.00 0.00 88 1016.6
20260906053625 21 44 0.0 6.4 0.00 0.00 0.00 88 1016.5
20260906053134 21 44 1.6 6.4 0.00 0.00 0.00 88 1016.4
20260906052619 21 44 1.6 6.4 0.00 0.00 0.00 88 1016.5
20260906052122 21 44 0.0 6.4 0.00 0.00 0.00 88 1016.3
20260906051635 21 44 0.0 3.2 0.00 0.00 0.00 88 1016.4
20260906051138 21 44 0.0 4.8 0.00 0.00 0.00 88 1016.4
20260906050628 21 44 0.0 4.8 0.00 0.00 0.00 87 1016.4
20260906050138 21 44 1.6 4.8 0.00 0.00 0.00 87 1016.4
20260906045623 21 44 0.0 4.8 0.00 0.00 0.00 87 1016.4
20260906045154 21 44 3.2 4.8 0.00 0.00 0.00 87 1016.4
20260906044617 22 44 0.0 3.2 0.00 0.00 0.00 87 1016.4
20260906044123 22 44 0.0 4.8 0.00 0.00 0.00 87 1016.4
20260906043652 22 44 0.0 8.0 0.00 0.00 0.00 87 1016.3
20260906043113 22 44 0.0 4.8 0.00 0.00 0.00 87 1016.2
20260906042614 22 44 0.0 8.0 0.00 0.00 0.00 87 1016.1
20260906042126 22 44 1.6 8.0 0.00 0.00 0.00 87 1016.0
20260906041630 22 46 0.0 8.0 0.00 0.00 0.00 87 1015.9
20260906041121 22 47 0.0 6.4 0.00 0.00 0.00 87 1015.9
20260906040624 22 47 1.6 9.7 0.00 0.00 0.00 86 1015.8
20260906040117 22 43 3.2 9.7 0.00 0.00 0.00 86 1015.8
20260906035618 22 61 0.0 8.0 0.00 0.00 0.00 86 1015.7
20260906035148 22 33 3.2 8.0 0.00 0.00 0.00 86 1015.6
20260906034631 22 80 1.6 8.0 0.00 0.00 0.00 86 1015.5
20260906034113 22 85 3.2 8.0 0.00 0.00 0.00 86 1015.3
20260906033624 22 46 1.6 6.4 0.00 0.00 0.00 85 1015.3
20260906033157 22 37 1.6 6.4 0.00 0.00 0.00 85 1015.5
20260906032617 22 37 0.0 14.5 0.00 0.00 0.00 85 1015.4
20260906032123 22 23 1.6 14.5 0.00 0.00 0.00 85 1015.3
20260906031634 22 83 4.8 14.5 0.00 0.00 0.00 85 1015.2
20260906031137 22 66 3.2 12.9 0.00 0.00 0.00 85 1015.3
20260906030625 22 62 3.2 9.7 0.00 0.00 0.00 85 1015.2
20260906030126 22 64 3.2 9.7 0.00 0.00 0.00 85 1015.0
20260906025637 23 59 3.2 8.0 0.00 0.00 0.00 85 1015.0
20260906025118 23 92 0.0 12.9 0.00 0.00 0.00 84 1015.0
20260906024632 23 82 1.6 12.9 0.00 0.00 0.00 84 1015.1
20260906024113 23 75 3.2 17.7 0.00 0.00 0.00 84 1014.9
20260906023638 23 94 3.2 17.7 0.00 0.00 0.00 84 1014.8
20260906023126 23 61 1.6 17.7 0.00 0.00 0.00 84 1014.8
20260906022632 23 44 4.8 17.7 0.00 0.00 0.00 84 1014.8
20260906022124 23 84 4.8 16.1 0.00 0.00 0.00 84 1014.7
20260906021624 23 75 0.0 14.5 0.00 0.00 0.00 85 1014.7
20260906021129 24 84 3.2 14.5 0.00 0.00 0.00 85 1014.6
20260906020638 24 54 1.6 11.3 0.00 0.00 0.00 85 1014.5
20260906020123 24 43 1.6 6.4 0.00 0.00 0.00 85 1014.6
20260906015613 24 92 1.6 8.0 0.00 0.00 0.00 85 1014.5
20260906015115 24 46 0.0 12.9 0.00 0.00 0.00 84 1014.4
20260906014627 24 39 4.8 12.9 0.00 0.00 0.00 84 1014.3
20260906014132 24 341 0.0 3.2 0.00 0.00 0.00 84 1014.4
20260906013618 24 341 0.0 1.6 0.00 0.00 0.00 84 1014.4
20260906013149 24 341 0.0 1.6 0.00 0.00 0.00 84 1014.3
20260906012615 24 341 0.0 1.6 0.00 0.00 0.00 83 1014.3
20260906012113 24 341 0.0 0.0 0.00 0.00 0.00 83 1014.2
20260906011618 24 341 0.0 0.0 0.00 0.00 0.00 83 1014.2
20260906011121 24 341 0.0 0.0 0.00 0.00 0.00 83 1014.2
20260906010631 24 341 0.0 4.8 0.00 0.00 0.00 83 1014.2
20260906010115 24 341 0.0 4.8 0.00 0.00 0.00 83 1014.1
20260906005630 24 341 0.0 3.2 0.00 0.00 0.00 83 1014.1
20260906005134 24 341 0.0 3.2 0.00 0.00 0.00 83 1014.1
20260906004617 25 341 0.0 3.2 0.00 0.00 0.00 82 1014.1
20260906004150 25 341 0.0 3.2 0.00 0.00 0.00 82 1014.2
20260906003614 25 341 0.0 3.2 0.00 0.00 0.00 81 1014.1
20260906003126 25 341 0.0 1.6 0.00 0.00 0.00 81 1014.2
20260906002628 25 341 0.0 1.6 0.00 0.00 0.00 81 1014.1
20260906002140 25 341 0.0 3.2 0.00 0.00 0.00 81 1014.2
20260906001620 25 341 0.0 3.2 0.00 0.00 0.00 80 1014.1
20260906001126 25 341 0.0 0.0 0.00 0.00 0.00 80 1014.1
20260906000637 25 341 0.0 0.0 0.00 0.00 0.00 80 1014.1
20260906000121 26 341 0.0 0.0 0.00 0.00 0.00 80 1014.2
20260905235652 26 341 0.0 3.2 0.00 0.00 0.00 79 1014.1
20260905235117 26 341 0.0 3.2 0.00 0.00 0.00 79 1014.3
20260905234622 26 341 0.0 4.8 0.00 0.00 0.00 79 1014.3
20260905234113 26 341 0.0 4.8 0.00 0.00 0.00 79 1014.3
20260905233617 26 341 1.6 8.0 0.00 0.00 0.00 78 1014.3
20260905233149 26 341 4.8 8.0 0.00 0.00 0.00 78 1014.4
20260905232632 26 346 3.2 12.9 0.00 0.00 0.00 77 1014.4
20260905232124 26 23 4.8 12.9 0.00 0.00 0.00 77 1014.4
20260905231630 26 21 4.8 14.5 0.00 0.00 0.00 77 1014.2
20260905231113 26 57 3.2 9.7 0.00 0.00 0.00 78 1014.2
20260905230624 26 28 1.6 6.4 0.00 0.00 0.00 79 1014.2
20260905230131 26 5 1.6 8.0 0.00 0.00 0.00 79 1014.2
20260905225615 26 22 1.6 9.7 0.00 0.00 0.00 79 1014.3
20260905225126 26 5 6.4 16.1 0.00 0.00 0.00 79 1014.3
20260905224632 26 355 4.8 16.1 0.00 0.00 0.00 79 1014.4
20260905224115 26 351 6.4 14.5 0.00 0.00 0.00 79 1014.3
20260905223648 27 360 4.8 12.9 0.00 0.00 0.00 78 1014.3
20260905223139 27 360 6.4 12.9 0.00 0.00 0.00 78 1014.3
20260905222621 27 5 3.2 14.5 0.00 0.00 0.00 77 1014.0
20260905222128 27 32 4.8 17.7 0.00 0.00 0.00 77 1013.9
20260905221619 27 339 6.4 17.7 0.00 0.00 0.00 77 1013.8
20260905221126 27 342 8.0 19.3 0.00 0.00 0.00 77 1013.9
20260905220639 27 351 8.0 16.1 0.00 0.00 0.00 77 1013.9
20260905220121 27 350 9.7 16.1 0.00 0.00 0.00 76 1014.0
20260905215627 28 23 6.4 16.1 0.00 0.00 0.00 76 1014.0
20260905215139 28 26 6.4 16.1 0.00 0.00 0.00 75 1013.9
20260905214623 28 13 4.8 14.5 0.00 0.00 0.00 76 1014.0
20260905214128 28 17 3.2 17.7 0.00 0.00 0.00 76 1014.0
20260905213612 28 58 6.4 20.9 0.00 0.00 0.00 76 1013.9
20260905213125 28 37 3.2 20.9 0.00 0.00 0.00 77 1013.9
20260905212631 28 360 4.8 17.7 0.00 0.00 0.00 76 1013.9
20260905212116 28 320 9.7 17.7 0.00 0.00 0.00 76 1013.8
20260905211628 28 351 6.4 17.7 0.00 0.00 0.00 76 1013.7
20260905211112 28 13 9.7 17.7 0.00 0.00 0.00 76 1013.6
20260905210616 28 11 8.0 17.7 0.00 0.00 0.00 76 1013.7
20260905210127 28 339 8.0 17.7 0.00 0.00 0.00 77 1013.7
20260905205611 28 11 6.4 17.7 0.00 0.00 0.00 77 1013.8
20260905205122 28 339 4.8 16.1 0.00 0.00 0.00 76 1013.9
20260905204628 29 355 8.0 20.9 0.00 0.00 0.00 76 1013.8
20260905204112 29 344 6.4 16.1 0.00 0.00 0.00 76 1013.8
20260905203624 28 355 6.4 16.1 0.00 0.00 0.00 75 1013.8
20260905203113 29 36 3.2 14.5 0.00 0.00 0.00 75 1013.7
20260905202617 29 10 8.0 16.1 0.00 0.00 0.00 75 1013.6
20260905202146 30 360 6.4 16.1 0.00 0.00 0.00 76 1013.6
20260905201658 29 74 4.8 17.7 0.00 0.00 0.00 76 1013.6
20260905201121 30 339 6.4 17.7 0.00 0.00 0.00 76 1013.8
20260905200634 30 11 6.4 14.5 0.00 0.00 0.00 74 1013.9
20260905200138 30 348 3.2 14.5 0.00 0.00 0.00 75 1013.8
20260905195650 30 71 6.4 14.5 0.00 0.00 0.00 74 1013.7
20260905195113 30 24 4.8 12.9 0.00 0.00 0.00 74 1013.7
20260905194624 30 13 3.2 12.9 0.00 0.00 0.00 75 1013.8
20260905194126 30 43 4.8 14.5 0.00 0.00 0.00 74 1013.8
20260905193656 30 5 6.4 16.1 0.00 0.00 0.00 73 1013.8
20260905193118 30 348 6.4 17.7 0.00 0.00 0.00 74 1013.8
20260905192624 30 360 8.0 17.7 0.00 0.00 0.00 75 1013.8
20260905192136 30 349 4.8 14.5 0.00 0.00 0.00 75 1013.8
20260905191640 30 5 3.2 12.9 0.00 0.00 0.00 75 1013.7
20260905191151 30 14 4.8 16.1 0.00 0.00 0.00 76 1013.8
20260905190615 30 355 6.4 16.1 0.00 0.00 0.00 74 1013.8
20260905190127 30 51 1.6 12.9 0.00 0.00 0.00 76 1013.8
20260905185612 30 48 4.8 12.9 0.00 0.00 0.00 74 1013.8
20260905185144 30 30 0.0 12.9 0.00 0.00 0.00 76 1013.9
20260905184629 30 30 4.8 12.9 0.00 0.00 0.00 74 1013.9
20260905184114 30 31 3.2 12.9 0.00 0.00 0.00 77 1013.9
20260905183644 30 340 6.4 16.1 0.00 0.00 0.00 76 1013.9
20260905183133 30 19 6.4 16.1 0.00 0.00 0.00 76 1014.0
20260905182637 30 19 4.8 11.3 0.00 0.00 0.00 75 1014.0
20260905182125 30 48 4.8 11.3 0.00 0.00 0.00 75 1014.1
20260905181627 30 19 3.2 9.7 0.00 0.00 0.00 75 1014.1
20260905181138 30 45 3.2 9.7 0.00 0.00 0.00 75 1014.1
20260905180621 30 19 4.8 9.7 0.00 0.00 0.00 76 1014.0
20260905180132 30 42 3.2 9.7 0.00 0.00 0.00 76 1014.0
20260905175616 30 32 4.8 12.9 0.00 0.00 0.00 76 1014.0
20260905175124 30 34 4.8 12.9 0.00 0.00 0.00 77 1014.1
20260905174635 30 31 3.2 8.0 0.00 0.00 0.00 76 1014.1
20260905174121 30 44 1.6 9.7 0.00 0.00 0.00 76 1014.1
20260905173624 30 38 4.8 9.7 0.00 0.00 0.00 76 1014.2
20260905173115 30 62 3.2 8.0 0.00 0.00 0.00 76 1014.2
20260905172617 30 340 1.6 8.0 0.00 0.00 0.00 76 1014.2
20260905172127 30 360 3.2 12.9 0.00 0.00 0.00 77 1014.1
20260905171612 30 36 3.2 9.7 0.00 0.00 0.00 77 1014.1
20260905171113 30 22 1.6 9.7 0.00 0.00 0.00 78 1014.3
20260905170623 30 72 3.2 9.7 0.00 0.00 0.00 78 1014.3
20260905170125 29 20 3.2 9.7 0.00 0.00 0.00 78 1014.2
20260905165633 29 51 1.6 9.7 0.00 0.00 0.00 79 1014.2
20260905165114 29 44 1.6 8.0 0.00 0.00 0.00 80 1014.1
20260905164622 28 34 1.6 9.7 0.00 0.00 0.00 81 1014.2
20260905164128 28 34 6.4 9.7 0.00 0.00 0.00 80 1014.2
20260905163613 28 5 4.8 8.0 0.00 0.00 0.00 81 1014.2
20260905163125 28 22 1.6 9.7 0.00 0.00 0.00 81 1014.2
20260905162654 28 22 6.4 11.3 0.00 0.00 0.00 81 1014.2
20260905162112 28 42 3.2 14.5 0.00 0.00 0.00 82 1014.2
20260905161741 28 43 4.8 14.5 0.00 0.00 0.00 81 1014.3
20260905161114 28 24 4.8 12.9 0.00 0.00 0.00 81 1014.3
20260905160615 28 34 3.2 8.0 0.00 0.00 0.00 83 1014.4
20260905160125 28 38 3.2 11.3 0.00 0.00 0.00 82 1014.4
20260905155627 28 46 6.4 11.3 0.00 0.00 0.00 82 1014.4
20260905155113 28 38 3.2 12.9 0.00 0.00 0.00 83 1014.4
20260905154621 27 5 6.4 14.5 0.00 0.00 0.00 83 1014.4
20260905154125 27 56 6.4 14.5 0.00 0.00 0.00 82 1014.3
20260905153636 27 35 3.2 12.9 0.00 0.00 0.00 82 1014.2
20260905153119 27 49 3.2 14.5 0.00 0.00 0.00 83 1014.2
20260905152650 27 33 6.4 14.5 0.00 0.00 0.00 82 1014.2
20260905152131 27 5 8.0 14.5 0.00 0.00 0.00 84 1014.1
20260905151638 27 56 3.2 12.9 0.00 0.00 0.00 83 1014.1
20260905151121 27 22 4.8 16.1 0.00 0.00 0.00 84 1014.1
20260905150624 27 329 3.2 16.1 0.00 0.00 0.00 85 1014.0
20260905150134 27 342 8.0 14.5 0.00 0.00 0.00 84 1013.9
20260905145617 27 355 4.8 17.7 0.00 0.00 0.00 84 1013.8
20260905145119 27 43 6.4 17.7 0.00 0.00 0.00 85 1013.7
20260905144628 27 32 6.4 17.7 0.00 0.00 0.00 85 1013.7
20260905144131 27 5 4.8 16.1 0.00 0.00 0.00 85 1013.5
20260905143620 27 15 4.8 16.1 0.00 0.00 0.00 86 1013.4
20260905143122 27 26 8.0 16.1 0.00 0.00 0.00 86 1013.4